Year,Month,Day,Hour,Minute,Value (Times are PST for temperature in C)
2012,05,25,00,00,10.60
2012,05,25,00,02,10.60
2012,05,25,00,04,10.60
2012,05,25,00,05,10.60
2012,05,25,00,06,10.60
2012,05,25,00,07,10.50
2012,05,25,00,09,10.50
2012,05,25,00,10,10.50
2012,05,25,00,11,10.40
2012,05,25,00,12,10.40
2012,05,25,00,14,10.40
2012,05,25,00,15,10.40
2012,05,25,00,16,10.40
2012,05,25,00,17,10.30
2012,05,25,00,19,10.30
2012,05,25,00,20,10.30
2012,05,25,00,21,10.30
2012,05,25,00,22,10.30
2012,05,25,00,24,10.30
2012,05,25,00,25,10.30
2012,05,25,00,26,10.20
2012,05,25,00,27,10.20
2012,05,25,00,29,10.20
2012,05,25,00,30,10.20
2012,05,25,00,31,10.20
2012,05,25,00,32,10.20
2012,05,25,00,34,10.20
2012,05,25,00,35,10.10
2012,05,25,00,36,10.10
2012,05,25,00,37,10.10
2012,05,25,00,38,10.10
2012,05,25,00,40,10.10
2012,05,25,00,41,10.10
2012,05,25,00,42,10.10
2012,05,25,00,43,10.10
2012,05,25,00,44,10.10
2012,05,25,00,45,10.00
2012,05,25,00,46,10.00
2012,05,25,00,47,10.00
2012,05,25,00,48,10.00
2012,05,25,00,49,10.00
2012,05,25,00,50,10.00
2012,05,25,00,52,10.00
2012,05,25,00,53,9.90
2012,05,25,00,54,9.90
2012,05,25,00,55,9.90
2012,05,25,00,56,9.90
2012,05,25,00,57,9.90
2012,05,25,00,58,9.90
2012,05,25,00,59,9.90
2012,05,25,01,00,9.90
2012,05,25,01,01,9.90
2012,05,25,01,02,9.90
2012,05,25,01,04,9.90
2012,05,25,01,05,9.90
2012,05,25,01,06,9.90
2012,05,25,01,07,9.90
2012,05,25,01,08,9.90
2012,05,25,01,10,9.90
2012,05,25,01,11,9.90
2012,05,25,01,12,9.80
2012,05,25,01,13,9.80
2012,05,25,01,14,9.80
2012,05,25,01,16,9.80
2012,05,25,01,17,9.80
2012,05,25,01,18,9.80
2012,05,25,01,20,9.80
2012,05,25,01,21,9.80
2012,05,25,01,22,9.80
2012,05,25,01,23,9.80
2012,05,25,01,24,9.80
2012,05,25,01,26,9.80
2012,05,25,01,27,9.70
2012,05,25,01,28,9.70
2012,05,25,01,29,9.70
2012,05,25,01,30,9.70
2012,05,25,01,31,9.70
2012,05,25,01,32,9.70
2012,05,25,01,33,9.70
2012,05,25,01,34,9.70
2012,05,25,01,35,9.70
2012,05,25,01,36,9.70
2012,05,25,01,37,9.70
2012,05,25,01,39,9.70
2012,05,25,01,40,9.70
2012,05,25,01,41,9.60
2012,05,25,01,42,9.60
2012,05,25,01,43,9.60
2012,05,25,01,44,9.60
2012,05,25,01,45,9.60
2012,05,25,01,46,9.60
2012,05,25,01,47,9.60
2012,05,25,01,48,9.50
2012,05,25,01,49,9.50
2012,05,25,01,50,9.50
2012,05,25,01,51,9.50
2012,05,25,01,52,9.50
2012,05,25,01,53,9.50
2012,05,25,01,54,9.50
2012,05,25,01,55,9.50
2012,05,25,01,56,9.50
2012,05,25,01,57,9.50
2012,05,25,01,58,9.50
2012,05,25,01,59,9.50
2012,05,25,02,00,9.50
2012,05,25,02,01,9.50
2012,05,25,02,02,9.50
2012,05,25,02,03,9.50
2012,05,25,02,04,9.50
2012,05,25,02,05,9.50
2012,05,25,02,06,9.50
2012,05,25,02,07,9.50
2012,05,25,02,08,9.40
2012,05,25,02,09,9.50
2012,05,25,02,10,9.40
2012,05,25,02,11,9.40
2012,05,25,02,12,9.40
2012,05,25,02,13,9.40
2012,05,25,02,14,9.40
2012,05,25,02,15,9.40
2012,05,25,02,16,9.40
2012,05,25,02,17,9.40
2012,05,25,02,18,9.40
2012,05,25,02,20,9.40
2012,05,25,02,21,9.40
2012,05,25,02,22,9.40
2012,05,25,02,23,9.40
2012,05,25,02,24,9.40
2012,05,25,02,25,9.40
2012,05,25,02,26,9.40
2012,05,25,02,27,9.40
2012,05,25,02,29,9.40
2012,05,25,02,30,9.40
2012,05,25,02,31,9.40
2012,05,25,02,32,9.40
2012,05,25,02,33,9.40
2012,05,25,02,34,9.40
2012,05,25,02,35,9.40
2012,05,25,02,36,9.30
2012,05,25,02,37,9.40
2012,05,25,02,38,9.30
2012,05,25,02,39,9.30
2012,05,25,02,40,9.30
2012,05,25,02,41,9.30
2012,05,25,02,42,9.30
2012,05,25,02,43,9.30
2012,05,25,02,44,9.30
2012,05,25,02,45,9.30
2012,05,25,02,46,9.30
2012,05,25,02,47,9.30
2012,05,25,02,49,9.30
2012,05,25,02,50,9.30
2012,05,25,02,51,9.30
2012,05,25,02,52,9.30
2012,05,25,02,53,9.30
2012,05,25,02,54,9.30
2012,05,25,02,55,9.30
2012,05,25,02,57,9.20
2012,05,25,02,58,9.20
2012,05,25,02,59,9.10
2012,05,25,03,00,9.10
2012,05,25,03,01,9.10
2012,05,25,03,02,9.10
2012,05,25,03,03,9.00
2012,05,25,03,04,9.00
2012,05,25,03,05,9.00
2012,05,25,03,06,8.90
2012,05,25,03,07,8.90
2012,05,25,03,08,8.90
2012,05,25,03,09,8.90
2012,05,25,03,10,8.90
2012,05,25,03,11,8.90
2012,05,25,03,12,8.90
2012,05,25,03,13,9.00
2012,05,25,03,14,9.00
2012,05,25,03,15,9.00
2012,05,25,03,16,9.00
2012,05,25,03,17,9.00
2012,05,25,03,18,9.00
2012,05,25,03,19,9.00
2012,05,25,03,20,9.00
2012,05,25,03,21,9.00
2012,05,25,03,22,9.00
2012,05,25,03,23,9.00
2012,05,25,03,24,9.00
2012,05,25,03,25,9.00
2012,05,25,03,26,8.90
2012,05,25,03,28,8.90
2012,05,25,03,29,8.90
2012,05,25,03,30,8.90
2012,05,25,03,31,8.90
2012,05,25,03,32,8.80
2012,05,25,03,34,8.80
2012,05,25,03,35,8.90
2012,05,25,03,36,8.90
2012,05,25,03,37,8.90
2012,05,25,03,38,8.90
2012,05,25,03,39,8.90
2012,05,25,03,40,8.90
2012,05,25,03,41,8.90
2012,05,25,03,42,8.90
2012,05,25,03,43,8.90
2012,05,25,03,44,8.90
2012,05,25,03,45,8.90
2012,05,25,03,46,8.90
2012,05,25,03,48,8.90
2012,05,25,03,49,8.90
2012,05,25,03,50,8.90
2012,05,25,03,51,9.00
2012,05,25,03,52,9.00
2012,05,25,03,53,9.00
2012,05,25,03,54,9.10
2012,05,25,03,55,9.10
2012,05,25,03,56,9.10
2012,05,25,03,57,9.10
2012,05,25,03,59,9.00
2012,05,25,04,00,8.90
2012,05,25,04,01,8.90
2012,05,25,04,02,8.80
2012,05,25,04,03,8.80
2012,05,25,04,05,8.70
2012,05,25,04,06,8.60
2012,05,25,04,07,8.60
2012,05,25,04,09,8.60
2012,05,25,04,10,8.60
2012,05,25,04,11,8.60
2012,05,25,04,12,8.60
2012,05,25,04,14,8.70
2012,05,25,04,15,8.70
2012,05,25,04,16,8.70
2012,05,25,04,17,8.70
2012,05,25,04,18,8.80
2012,05,25,04,19,8.80
2012,05,25,04,20,8.80
2012,05,25,04,21,8.90
2012,05,25,04,22,8.90
2012,05,25,04,23,8.90
2012,05,25,04,24,9.00
2012,05,25,04,25,9.10
2012,05,25,04,27,9.10
2012,05,25,04,28,9.20
2012,05,25,04,29,9.20
2012,05,25,04,30,9.20
2012,05,25,04,32,9.30
2012,05,25,04,33,9.30
2012,05,25,04,34,9.30
2012,05,25,04,36,9.30
2012,05,25,04,37,9.30
2012,05,25,04,38,9.30
2012,05,25,04,40,9.30
2012,05,25,04,41,9.30
2012,05,25,04,42,9.20
2012,05,25,04,44,9.30
2012,05,25,04,45,9.30
2012,05,25,04,46,9.30
2012,05,25,04,47,9.30
2012,05,25,04,49,9.30
2012,05,25,04,50,9.30
2012,05,25,04,51,9.30
2012,05,25,04,53,9.30
2012,05,25,04,54,9.20
2012,05,25,04,55,9.20
2012,05,25,04,56,9.10
2012,05,25,04,58,9.10
2012,05,25,04,59,8.90
2012,05,25,05,00,8.90
2012,05,25,05,01,8.90
2012,05,25,05,03,8.90
2012,05,25,05,04,8.80
2012,05,25,05,05,8.80
2012,05,25,05,07,8.80
2012,05,25,05,08,8.80
2012,05,25,05,09,8.70
2012,05,25,05,10,8.70
2012,05,25,05,11,8.70
2012,05,25,05,13,8.70
2012,05,25,05,14,8.70
2012,05,25,05,16,8.70
2012,05,25,05,17,8.60
2012,05,25,05,18,8.60
2012,05,25,05,20,8.60
2012,05,25,05,21,8.50
2012,05,25,05,22,8.40
2012,05,25,05,23,8.40
2012,05,25,05,25,8.30
2012,05,25,05,26,8.30
2012,05,25,05,27,8.30
2012,05,25,05,28,8.30
2012,05,25,05,29,8.20
2012,05,25,05,30,8.20
2012,05,25,05,31,8.20
2012,05,25,05,32,8.30
2012,05,25,05,34,8.30
2012,05,25,05,35,8.30
2012,05,25,05,36,8.30
2012,05,25,05,37,8.40
2012,05,25,05,38,8.40
2012,05,25,05,39,8.40
2012,05,25,05,40,8.60
2012,05,25,05,41,8.60
2012,05,25,05,42,8.60
2012,05,25,05,43,8.60
2012,05,25,05,44,8.70
2012,05,25,05,45,8.70
2012,05,25,05,46,8.70
2012,05,25,05,47,8.80
2012,05,25,05,48,8.80
2012,05,25,05,49,8.80
2012,05,25,05,50,8.80
2012,05,25,05,52,8.80
2012,05,25,05,53,8.80
2012,05,25,05,54,8.80
2012,05,25,05,55,8.90
2012,05,25,05,56,8.90
2012,05,25,05,57,8.90
2012,05,25,05,58,8.90
2012,05,25,05,59,8.90
2012,05,25,06,00,8.90
2012,05,25,06,01,8.90
2012,05,25,06,02,8.90
2012,05,25,06,03,9.00
2012,05,25,06,04,9.00
2012,05,25,06,05,9.00
2012,05,25,06,06,9.10
2012,05,25,06,08,9.10
2012,05,25,06,09,9.10
2012,05,25,06,10,9.10
2012,05,25,06,11,9.10
2012,05,25,06,13,9.10
2012,05,25,06,14,9.10
2012,05,25,06,15,9.10
2012,05,25,06,16,9.10
2012,05,25,06,17,9.20
2012,05,25,06,18,9.20
2012,05,25,06,19,9.20
2012,05,25,06,20,9.20
2012,05,25,06,21,9.20
2012,05,25,06,22,9.20
2012,05,25,06,24,9.20
2012,05,25,06,25,9.30
2012,05,25,06,26,9.30
2012,05,25,06,28,9.30
2012,05,25,06,29,9.40
2012,05,25,06,30,9.40
2012,05,25,06,31,9.40
2012,05,25,06,32,9.40
2012,05,25,06,33,9.40
2012,05,25,06,34,9.40
2012,05,25,06,35,9.50
2012,05,25,06,36,9.60
2012,05,25,06,37,9.60
2012,05,25,06,38,9.60
2012,05,25,06,39,9.70
2012,05,25,06,40,9.70
2012,05,25,06,41,9.80
2012,05,25,06,42,9.80
2012,05,25,06,43,9.80
2012,05,25,06,44,9.90
2012,05,25,06,46,9.90
2012,05,25,06,47,10.00
2012,05,25,06,48,10.10
2012,05,25,06,49,10.10
2012,05,25,06,51,10.10
2012,05,25,06,52,10.20
2012,05,25,06,53,10.20
2012,05,25,06,54,10.20
2012,05,25,06,56,10.20
2012,05,25,06,57,10.30
2012,05,25,06,58,10.30
2012,05,25,06,59,10.30
2012,05,25,07,00,10.30
2012,05,25,07,02,10.30
2012,05,25,07,03,10.40
2012,05,25,07,04,10.40
2012,05,25,07,05,10.50
2012,05,25,07,06,10.50
2012,05,25,07,07,10.60
2012,05,25,07,08,10.60
2012,05,25,07,09,10.70
2012,05,25,07,10,10.80
2012,05,25,07,11,10.80
2012,05,25,07,12,10.90
2012,05,25,07,13,10.90
2012,05,25,07,14,11.10
2012,05,25,07,15,11.10
2012,05,25,07,17,11.20
2012,05,25,07,18,11.30
2012,05,25,07,19,11.40
2012,05,25,07,20,11.50
2012,05,25,07,21,11.60
2012,05,25,07,22,11.70
2012,05,25,07,23,11.80
2012,05,25,07,24,11.80
2012,05,25,07,25,11.90
2012,05,25,07,26,11.90
2012,05,25,07,28,12.00
2012,05,25,07,29,12.00
2012,05,25,07,30,12.00
2012,05,25,07,31,11.90
2012,05,25,07,32,11.90
2012,05,25,07,33,11.90
2012,05,25,07,34,11.90
2012,05,25,07,35,11.90
2012,05,25,07,36,11.90
2012,05,25,07,38,11.90
2012,05,25,07,39,12.00
2012,05,25,07,40,12.10
2012,05,25,07,41,12.10
2012,05,25,07,42,12.10
2012,05,25,07,43,12.20
2012,05,25,07,44,12.20
2012,05,25,07,45,12.20
2012,05,25,07,47,12.20
2012,05,25,07,48,12.20
2012,05,25,07,49,12.30
2012,05,25,07,50,12.30
2012,05,25,07,52,12.40
2012,05,25,07,53,12.50
2012,05,25,07,54,12.60
2012,05,25,07,56,12.70
2012,05,25,07,57,12.80
2012,05,25,07,58,12.90
2012,05,25,07,59,13.10
2012,05,25,08,00,13.20
2012,05,25,08,01,13.30
2012,05,25,08,02,13.40
2012,05,25,08,03,13.60
2012,05,25,08,04,13.70
2012,05,25,08,05,13.70
2012,05,25,08,06,13.80
2012,05,25,08,07,14.00
2012,05,25,08,08,14.20
2012,05,25,08,09,14.20
2012,05,25,08,10,14.30
2012,05,25,08,11,14.40
2012,05,25,08,12,14.50
2012,05,25,08,13,14.60
2012,05,25,08,15,14.50
2012,05,25,08,16,14.40
2012,05,25,08,17,14.40
2012,05,25,08,18,14.30
2012,05,25,08,20,14.30
2012,05,25,08,21,14.40
2012,05,25,08,22,14.40
2012,05,25,08,23,14.60
2012,05,25,08,25,14.70
2012,05,25,08,26,14.80
2012,05,25,08,27,14.90
2012,05,25,08,28,14.90
2012,05,25,08,29,15.00
2012,05,25,08,31,15.10
2012,05,25,08,32,15.00
2012,05,25,08,33,14.90
2012,05,25,08,34,14.90
2012,05,25,08,36,14.90
2012,05,25,08,37,15.10
2012,05,25,08,38,15.20
2012,05,25,08,39,15.20
2012,05,25,08,40,15.30
2012,05,25,08,41,15.30
2012,05,25,08,42,15.30
2012,05,25,08,43,15.40
2012,05,25,08,44,15.40
2012,05,25,08,45,15.40
2012,05,25,08,46,15.40
2012,05,25,08,47,15.40
2012,05,25,08,48,15.40
2012,05,25,08,50,15.40
2012,05,25,08,51,15.40
2012,05,25,08,52,15.60
2012,05,25,08,53,15.60
2012,05,25,08,54,15.70
2012,05,25,08,55,15.70
2012,05,25,08,56,15.80
2012,05,25,08,57,15.70
2012,05,25,08,58,15.70
2012,05,25,08,59,15.70
2012,05,25,09,01,15.70
2012,05,25,09,02,15.70
2012,05,25,09,03,15.80
2012,05,25,09,04,15.80
2012,05,25,09,06,15.80
2012,05,25,09,07,15.70
2012,05,25,09,08,15.70
2012,05,25,09,09,15.70
2012,05,25,09,11,15.70
2012,05,25,09,12,15.70
2012,05,25,09,13,15.70
2012,05,25,09,14,15.70
2012,05,25,09,16,15.70
2012,05,25,09,17,15.70
2012,05,25,09,18,15.70
2012,05,25,09,19,15.70
2012,05,25,09,20,15.70
2012,05,25,09,21,15.70
2012,05,25,09,22,15.70
2012,05,25,09,23,15.70
2012,05,25,09,24,15.70
2012,05,25,09,25,15.70
2012,05,25,09,26,15.80
2012,05,25,09,27,15.90
2012,05,25,09,28,15.90
2012,05,25,09,29,15.90
2012,05,25,09,31,16.10
2012,05,25,09,32,16.30
2012,05,25,09,33,16.40
2012,05,25,09,34,16.60
2012,05,25,09,36,16.70
2012,05,25,09,37,16.80
2012,05,25,09,38,16.80
2012,05,25,09,39,16.90
2012,05,25,09,40,16.90
2012,05,25,09,41,16.90
2012,05,25,09,42,16.90
2012,05,25,09,43,16.90
2012,05,25,09,45,16.80
2012,05,25,09,46,16.80
2012,05,25,09,47,16.70
2012,05,25,09,48,16.80
2012,05,25,09,50,16.80
2012,05,25,09,51,16.80
2012,05,25,09,52,16.80
2012,05,25,09,53,16.80
2012,05,25,09,55,16.80
2012,05,25,09,56,16.90
2012,05,25,09,57,16.90
2012,05,25,09,59,16.90
2012,05,25,10,00,17.00
2012,05,25,10,01,16.80
2012,05,25,10,02,16.80
2012,05,25,10,03,16.70
2012,05,25,10,05,16.60
2012,05,25,10,06,16.60
2012,05,25,10,07,16.50
2012,05,25,10,08,16.50
2012,05,25,10,10,16.40
2012,05,25,10,11,16.40
2012,05,25,10,12,16.40
2012,05,25,10,13,16.40
2012,05,25,10,15,16.40
2012,05,25,10,16,16.40
2012,05,25,10,17,16.40
2012,05,25,10,18,16.40
2012,05,25,10,19,16.50
2012,05,25,10,20,16.50
2012,05,25,10,21,16.60
2012,05,25,10,22,16.60
2012,05,25,10,23,16.70
2012,05,25,10,24,16.70
2012,05,25,10,25,16.80
2012,05,25,10,26,16.80
2012,05,25,10,27,16.80
2012,05,25,10,29,16.90
2012,05,25,10,30,16.90
2012,05,25,10,31,16.90
2012,05,25,10,32,16.90
2012,05,25,10,34,16.80
2012,05,25,10,35,16.80
2012,05,25,10,36,16.90
2012,05,25,10,37,16.90
2012,05,25,10,38,16.90
2012,05,25,10,40,16.90
2012,05,25,10,41,17.00
2012,05,25,10,42,17.00
2012,05,25,10,43,16.90
2012,05,25,10,45,16.90
2012,05,25,10,46,16.80
2012,05,25,10,47,16.80
2012,05,25,10,48,16.70
2012,05,25,10,50,16.70
2012,05,25,10,51,16.70
2012,05,25,10,52,16.80
2012,05,25,10,53,16.80
2012,05,25,10,54,16.80
2012,05,25,10,56,16.80
2012,05,25,10,57,16.80
2012,05,25,10,58,16.90
2012,05,25,10,59,16.90
2012,05,25,11,00,17.00
2012,05,25,11,01,16.90
2012,05,25,11,02,16.80
2012,05,25,11,03,16.70
2012,05,25,11,04,16.70
2012,05,25,11,05,16.60
2012,05,25,11,06,16.60
2012,05,25,11,07,16.70
2012,05,25,11,08,16.70
2012,05,25,11,10,16.70
2012,05,25,11,11,16.80
2012,05,25,11,12,16.80
2012,05,25,11,13,16.90
2012,05,25,11,14,16.90
2012,05,25,11,15,16.90
2012,05,25,11,16,16.90
2012,05,25,11,17,16.90
2012,05,25,11,19,16.90
2012,05,25,11,20,17.00
2012,05,25,11,21,17.10
2012,05,25,11,22,17.10
2012,05,25,11,23,17.10
2012,05,25,11,25,17.10
2012,05,25,11,26,17.00
2012,05,25,11,27,17.00
2012,05,25,11,28,17.10
2012,05,25,11,29,17.10
2012,05,25,11,31,17.10
2012,05,25,11,32,17.20
2012,05,25,11,33,17.30
2012,05,25,11,34,17.30
2012,05,25,11,35,17.30
2012,05,25,11,37,17.30
2012,05,25,11,38,17.30
2012,05,25,11,39,17.30
2012,05,25,11,40,17.30
2012,05,25,11,42,17.30
2012,05,25,11,43,17.40
2012,05,25,11,44,17.40
2012,05,25,11,46,17.40
2012,05,25,11,47,17.40
2012,05,25,11,48,17.40
2012,05,25,11,49,17.40
2012,05,25,11,50,17.50
2012,05,25,11,51,17.50
2012,05,25,11,52,17.60
2012,05,25,11,53,17.60
2012,05,25,11,54,17.60
2012,05,25,11,56,17.60
2012,05,25,11,57,17.70
2012,05,25,11,58,17.70
2012,05,25,11,59,17.80
2012,05,25,12,01,18.00
2012,05,25,12,02,18.10
2012,05,25,12,03,18.10
2012,05,25,12,04,18.20
2012,05,25,12,06,18.20
2012,05,25,12,07,18.30
2012,05,25,12,08,18.30
2012,05,25,12,09,18.30
2012,05,25,12,10,18.30
2012,05,25,12,11,18.40
2012,05,25,12,12,18.40
2012,05,25,12,13,18.50
2012,05,25,12,14,18.60
2012,05,25,12,16,18.60
2012,05,25,12,17,18.60
2012,05,25,12,18,18.60
2012,05,25,12,19,18.60
2012,05,25,12,20,18.60
2012,05,25,12,21,18.60
2012,05,25,12,22,18.70
2012,05,25,12,23,18.60
2012,05,25,12,24,18.60
2012,05,25,12,26,18.60
2012,05,25,12,27,18.60
2012,05,25,12,28,18.70
2012,05,25,12,29,18.70
2012,05,25,12,31,18.80
2012,05,25,12,32,18.90
2012,05,25,12,33,19.00
2012,05,25,12,34,19.10
2012,05,25,12,35,19.20
2012,05,25,12,36,19.20
2012,05,25,12,37,19.30
2012,05,25,12,38,19.30
2012,05,25,12,39,19.30
2012,05,25,12,40,19.30
2012,05,25,12,42,19.40
2012,05,25,12,43,19.60
2012,05,25,12,44,19.60
2012,05,25,12,46,19.60
2012,05,25,12,47,19.70
2012,05,25,12,48,19.80
2012,05,25,12,50,19.80
2012,05,25,12,51,19.90
2012,05,25,12,52,19.80
2012,05,25,12,53,19.80
2012,05,25,12,55,19.80
2012,05,25,12,56,19.90
2012,05,25,12,57,19.90
2012,05,25,12,58,19.90
2012,05,25,12,59,19.90
2012,05,25,13,00,20.00
2012,05,25,13,01,20.10
2012,05,25,13,02,20.10
2012,05,25,13,03,20.20
2012,05,25,13,05,20.20
2012,05,25,13,06,20.10
2012,05,25,13,07,20.20
2012,05,25,13,08,20.20
2012,05,25,13,09,20.20
2012,05,25,13,11,20.20
2012,05,25,13,12,20.20
2012,05,25,13,13,20.20
2012,05,25,13,14,20.20
2012,05,25,13,15,20.10
2012,05,25,13,16,20.10
2012,05,25,13,17,20.00
2012,05,25,13,18,20.00
2012,05,25,13,19,20.10
2012,05,25,13,20,20.20
2012,05,25,13,21,20.20
2012,05,25,13,22,20.30
2012,05,25,13,24,20.30
2012,05,25,13,25,20.30
2012,05,25,13,26,20.20
2012,05,25,13,27,20.20
2012,05,25,13,29,20.20
2012,05,25,13,30,20.20
2012,05,25,13,31,20.20
2012,05,25,13,32,20.20
2012,05,25,13,34,20.30
2012,05,25,13,35,20.30
2012,05,25,13,36,20.30
2012,05,25,13,38,20.30
2012,05,25,13,39,20.30
2012,05,25,13,40,20.30
2012,05,25,13,41,20.30
2012,05,25,13,43,20.30
2012,05,25,13,44,20.30
2012,05,25,13,45,20.30
2012,05,25,13,46,20.30
2012,05,25,13,47,20.40
2012,05,25,13,48,20.40
2012,05,25,13,49,20.40
2012,05,25,13,50,20.40
2012,05,25,13,52,20.30
2012,05,25,13,53,20.30
2012,05,25,13,54,20.40
2012,05,25,13,55,20.40
2012,05,25,13,57,20.40
2012,05,25,13,58,20.40
2012,05,25,13,59,20.60
2012,05,25,14,00,20.70
2012,05,25,14,02,20.70
2012,05,25,14,03,20.90
2012,05,25,14,04,20.90
2012,05,25,14,06,20.90
2012,05,25,14,07,20.80
2012,05,25,14,08,20.80
2012,05,25,14,09,20.80
2012,05,25,14,11,20.80
2012,05,25,14,12,20.80
2012,05,25,14,13,20.80
2012,05,25,14,14,20.80
2012,05,25,14,15,20.80
2012,05,25,14,16,20.80
2012,05,25,14,17,20.80
2012,05,25,14,19,20.80
2012,05,25,14,20,20.90
2012,05,25,14,21,20.90
2012,05,25,14,22,21.00
2012,05,25,14,24,20.90
2012,05,25,14,25,20.80
2012,05,25,14,26,20.80
2012,05,25,14,27,20.80
2012,05,25,14,28,20.80
2012,05,25,14,29,20.90
2012,05,25,14,30,20.90
2012,05,25,14,31,21.00
2012,05,25,14,33,21.10
2012,05,25,14,34,21.20
2012,05,25,14,35,21.30
2012,05,25,14,36,21.30
2012,05,25,14,37,21.30
2012,05,25,14,38,21.30
2012,05,25,14,39,21.30
2012,05,25,14,40,21.20
2012,05,25,14,41,21.20
2012,05,25,14,42,21.20
2012,05,25,14,43,21.20
2012,05,25,14,44,21.20
2012,05,25,14,45,21.20
2012,05,25,14,46,21.20
2012,05,25,14,47,21.20
2012,05,25,14,48,21.20
2012,05,25,14,49,21.20
2012,05,25,14,50,21.30
2012,05,25,14,51,21.30
2012,05,25,14,52,21.40
2012,05,25,14,53,21.40
2012,05,25,14,54,21.40
2012,05,25,14,55,21.40
2012,05,25,14,56,21.40
2012,05,25,14,58,21.60
2012,05,25,14,59,21.70
2012,05,25,15,00,21.70
2012,05,25,15,01,21.70
2012,05,25,15,02,21.70
2012,05,25,15,03,21.80
2012,05,25,15,04,21.80
2012,05,25,15,05,21.90
2012,05,25,15,07,21.90
2012,05,25,15,08,22.10
2012,05,25,15,09,22.10
2012,05,25,15,10,22.00
2012,05,25,15,11,22.00
2012,05,25,15,13,22.10
2012,05,25,15,14,22.10
2012,05,25,15,15,22.10
2012,05,25,15,16,22.10
2012,05,25,15,17,22.10
2012,05,25,15,18,22.10
2012,05,25,15,19,22.10
2012,05,25,15,20,22.10
2012,05,25,15,21,22.20
2012,05,25,15,23,22.20
2012,05,25,15,24,22.20
2012,05,25,15,25,22.20
2012,05,25,15,26,22.20
2012,05,25,15,28,22.20
2012,05,25,15,29,22.20
2012,05,25,15,30,22.30
2012,05,25,15,32,22.30
2012,05,25,15,33,22.40
2012,05,25,15,34,22.40
2012,05,25,15,35,22.40
2012,05,25,15,37,22.50
2012,05,25,15,38,22.60
2012,05,25,15,39,22.70
2012,05,25,15,40,22.70
2012,05,25,15,42,22.80
2012,05,25,15,43,22.70
2012,05,25,15,44,22.70
2012,05,25,15,45,22.70
2012,05,25,15,47,22.70
2012,05,25,15,48,22.60
2012,05,25,15,49,22.70
2012,05,25,15,50,22.70
2012,05,25,15,52,22.70
2012,05,25,15,53,22.70
2012,05,25,15,54,22.70
2012,05,25,15,55,22.80
2012,05,25,15,56,22.80
2012,05,25,15,57,22.80
2012,05,25,15,58,22.90
2012,05,25,15,59,22.80
2012,05,25,16,01,22.80
2012,05,25,16,02,22.80
2012,05,25,16,03,22.80
2012,05,25,16,04,22.80
2012,05,25,16,06,22.80
2012,05,25,16,07,22.80
2012,05,25,16,08,22.80
2012,05,25,16,09,22.80
2012,05,25,16,10,22.90
2012,05,25,16,11,22.90
2012,05,25,16,12,22.90
2012,05,25,16,13,22.90
2012,05,25,16,15,23.00
2012,05,25,16,16,23.00
2012,05,25,16,17,23.00
2012,05,25,16,18,23.10
2012,05,25,16,20,23.10
2012,05,25,16,21,23.20
2012,05,25,16,22,23.20
2012,05,25,16,23,23.20
2012,05,25,16,24,23.10
2012,05,25,16,25,23.10
2012,05,25,16,26,23.10
2012,05,25,16,27,23.10
2012,05,25,16,28,23.10
2012,05,25,16,30,23.10
2012,05,25,16,31,23.10
2012,05,25,16,32,23.10
2012,05,25,16,33,23.10
2012,05,25,16,34,23.10
2012,05,25,16,35,23.10
2012,05,25,16,36,23.10
2012,05,25,16,37,23.10
2012,05,25,16,38,23.10
2012,05,25,16,39,23.10
2012,05,25,16,41,23.20
2012,05,25,16,42,23.20
2012,05,25,16,43,23.30
2012,05,25,16,44,23.40
2012,05,25,16,48,23.30
2012,05,25,16,49,23.20
2012,05,25,16,50,23.20
2012,05,25,16,51,23.10
2012,05,25,16,52,23.10
2012,05,25,16,53,23.10
2012,05,25,16,54,23.00
2012,05,25,16,55,23.00
2012,05,25,16,56,23.00
2012,05,25,16,57,23.10
2012,05,25,16,58,23.20
2012,05,25,16,59,23.20
2012,05,25,17,00,23.30
2012,05,25,17,01,23.30
2012,05,25,17,02,23.30
2012,05,25,17,03,23.30
2012,05,25,17,04,23.20
2012,05,25,17,05,23.20
2012,05,25,17,06,23.20
2012,05,25,17,07,23.30
2012,05,25,17,08,23.30
2012,05,25,17,09,23.30
2012,05,25,17,10,23.40
2012,05,25,17,11,23.40
2012,05,25,17,12,23.30
2012,05,25,17,13,23.30
2012,05,25,17,14,23.20
2012,05,25,17,15,23.20
2012,05,25,17,16,23.20
2012,05,25,17,17,23.20
2012,05,25,17,18,23.10
2012,05,25,17,19,23.10
2012,05,25,17,20,23.10
2012,05,25,17,21,23.00
2012,05,25,17,22,23.00
2012,05,25,17,23,23.00
2012,05,25,17,24,23.10
2012,05,25,17,25,23.10
2012,05,25,17,26,23.00
2012,05,25,17,27,23.00
2012,05,25,17,28,23.00
2012,05,25,17,29,22.90
2012,05,25,17,30,22.90
2012,05,25,17,31,22.90
2012,05,25,17,32,22.90
2012,05,25,17,33,22.90
2012,05,25,17,34,23.00
2012,05,25,17,35,23.10
2012,05,25,17,36,23.10
2012,05,25,17,38,23.20
2012,05,25,17,39,23.20
2012,05,25,17,40,23.20
2012,05,25,17,41,23.30
2012,05,25,17,42,23.30
2012,05,25,17,43,23.30
2012,05,25,17,44,23.30
2012,05,25,17,45,23.30
2012,05,25,17,46,23.30
2012,05,25,17,47,23.30
2012,05,25,17,48,23.30
2012,05,25,17,49,23.20
2012,05,25,17,50,23.20
2012,05,25,17,52,23.20
2012,05,25,17,53,23.30
2012,05,25,17,54,23.30
2012,05,25,17,56,23.20
2012,05,25,17,57,23.20
2012,05,25,17,58,23.20
2012,05,25,17,59,23.20
2012,05,25,18,00,23.20
2012,05,25,18,01,23.10
2012,05,25,18,02,23.00
2012,05,25,18,03,22.90
2012,05,25,18,05,22.80
2012,05,25,18,06,22.80
2012,05,25,18,07,22.80
2012,05,25,18,08,22.80
2012,05,25,18,10,22.80
2012,05,25,18,11,22.80
2012,05,25,18,12,22.80
2012,05,25,18,13,22.80
2012,05,25,18,14,22.80
2012,05,25,18,16,22.70
2012,05,25,18,17,22.60
2012,05,25,18,18,22.40
2012,05,25,18,19,22.30
2012,05,25,18,20,22.20
2012,05,25,18,21,22.10
2012,05,25,18,22,21.90
2012,05,25,18,23,21.80
2012,05,25,18,25,21.70
2012,05,25,18,26,21.60
2012,05,25,18,27,21.60
2012,05,25,18,28,21.60
2012,05,25,18,29,21.60
2012,05,25,18,30,21.60
2012,05,25,18,31,21.60
2012,05,25,18,32,21.60
2012,05,25,18,33,21.60
2012,05,25,18,34,21.60
2012,05,25,18,35,21.60
2012,05,25,18,36,21.60
2012,05,25,18,37,21.60
2012,05,25,18,39,21.60
2012,05,25,18,40,21.60
2012,05,25,18,41,21.60
2012,05,25,18,43,21.60
2012,05,25,18,44,21.60
2012,05,25,18,45,21.60
2012,05,25,18,46,21.60
2012,05,25,18,47,21.70
2012,05,25,18,49,21.70
2012,05,25,18,50,21.80
2012,05,25,18,51,21.80
2012,05,25,18,52,21.80
2012,05,25,18,54,21.80
2012,05,25,18,55,21.70
2012,05,25,18,56,21.70
2012,05,25,18,58,21.60
2012,05,25,18,59,21.60
2012,05,25,19,00,21.60
2012,05,25,19,01,21.60
2012,05,25,19,02,21.60
2012,05,25,19,03,21.50
2012,05,25,19,04,21.40
2012,05,25,19,05,21.40
2012,05,25,19,06,21.40
2012,05,25,19,08,21.40
2012,05,25,19,09,21.30
2012,05,25,19,10,21.30
2012,05,25,19,11,21.20
2012,05,25,19,12,21.20
2012,05,25,19,14,21.10
2012,05,25,19,15,21.10
2012,05,25,19,16,21.20
2012,05,25,19,17,21.20
2012,05,25,19,18,21.20
2012,05,25,19,19,21.20
2012,05,25,19,20,21.20
2012,05,25,19,21,21.30
2012,05,25,19,22,21.30
2012,05,25,19,23,21.30
2012,05,25,19,24,21.30
2012,05,25,19,25,21.30
2012,05,25,19,26,21.30
2012,05,25,19,27,21.40
2012,05,25,19,29,21.40
2012,05,25,19,30,21.40
2012,05,25,19,31,21.50
2012,05,25,19,32,21.40
2012,05,25,19,33,21.40
2012,05,25,19,34,21.30
2012,05,25,19,35,21.20
2012,05,25,19,36,21.20
2012,05,25,19,38,21.10
2012,05,25,19,39,20.90
2012,05,25,19,40,20.90
2012,05,25,19,42,20.80
2012,05,25,19,43,20.70
2012,05,25,19,44,20.60
2012,05,25,19,45,20.60
2012,05,25,19,46,20.50
2012,05,25,19,47,20.40
2012,05,25,19,48,20.30
2012,05,25,19,49,20.30
2012,05,25,19,50,20.20
2012,05,25,19,51,20.20
2012,05,25,19,53,20.20
2012,05,25,19,54,20.10
2012,05,25,19,55,20.10
2012,05,25,19,56,20.10
2012,05,25,19,57,20.10
2012,05,25,19,58,20.00
2012,05,25,19,59,20.00
2012,05,25,20,00,20.00
2012,05,25,20,01,19.90
2012,05,25,20,02,19.90
2012,05,25,20,03,19.90
2012,05,25,20,04,19.90